Probability
13 13 13 14 14 14 12 12 12 10 7 5 4 4 5 5 2 2 2 1 0 0 0 0 0 0 0 0 0 0 0 0 0 0 0 0 1 1
13 13 13 14 16 15 14 14 14 12 9 6 5 5 5 5 3 3 2 1 0 0 0 0 0 0 0 0 0 0 0 0 0 0 0 0 0 1
13 13 13 14 16 17 16 15 15 13 9 7 5 4 5 5 5 4 3 2 1 0 0 0 0 0 0 0 0 0 0 0 0 0 0 0 0 0
12 12 12 13 16 16 15 14 14 12 10 8 5 4 4 6 6 5 3 3 2 1 0 0 0 0 0 0 0 0 0 0 0 0 0 0 0 0
11 11 11 13 14 14 13 14 13 12 11 9 6 4 5 6 6 4 2 2 1 1 0 0 0 0 0 0 0 0 0 0 0 0 0 0 0 0
12 11 10 11 11 10 10 11 12 11 10 9 7 6 6 6 5 3 1 0 0 0 0 0 0 0 0 0 0 0 0 0 0 0 0 0 0 0
11 10 9 8 8 7 7 8 9 8 8 7 7 6 6 5 4 2 1 1 1 0 0 0 0 0 0 0 0 0 0 0 0 0 0 0 0 0
8 7 6 6 6 6 5 5 5 5 6 6 5 5 5 4 3 2 2 3 2 0 0 0 0 0 0 0 0 0 0 0 0 0 0 0 0 0
6 5 5 5 5 5 5 4 4 4 4 4 4 3 3 3 2 2 2 2 1 0 0 0 0 0 0 0 0 0 0 0 0 0 0 0 0 0
6 5 5 5 4 3 3 3 4 4 2 2 2 2 1 1 1 1 1 0 0 0 0 0 0 0 0 0 0 0 0 0 0 0 0 0 0 0
6 6 7 6 3 1 1 3 3 3 2 2 1 1 0 0 1 1 1 0 0 0 0 0 0 0 0 0 0 0 0 0 0 0 0 0 0 0
8 8 8 6 3 0 1 3 4 4 3 2 1 1 0 0 0 0 1 0 0 0 0 1 0 0 0 0 0 0 0 0 0 0 0 0 0 0
9 9 9 5 2 0 1 3 4 4 4 4 2 1 1 1 1 1 1 1 1 1 1 1 0 0 0 0 0 0 0 0 0 0 0 0 0 0
9 9 7 4 1 0 1 2 3 3 5 5 3 2 1 2 3 3 2 2 2 2 2 1 0 0 0 0 0 0 0 0 0 0 0 0 0 0
7 6 4 2 0 0 1 1 1 3 5 5 4 2 3 4 5 4 3 3 3 3 2 1 0 0 0 0 0 0 0 0 0 0 0 0 0 0
2 2 2 1 0 1 2 2 2 3 4 5 4 3 4 6 6 4 3 3 3 2 1 0 0 0 0 0 0 0 0 0 0 0 0 0 0 0
1 1 1 0 0 2 3 4 5 5 5 5 4 4 6 7 7 6 5 3 2 2 1 0 0 0 0 0 0 0 0 0 0 0 0 0 0 0
1 2 2 1 0 1 3 5 6 6 7 6 6 6 6 6 7 7 6 4 3 2 1 0 0 0 0 0 0 0 0 0 0 0 0 0 0 0
1 3 3 2 1 1 2 3 4 6 7 6 6 6 7 6 7 8 7 4 3 3 2 1 0 0 0 0 0 0 0 0 0 0 0 0 0 0
1 2 3 3 3 2 2 2 3 5 5 5 5 6 7 7 7 7 6 4 3 3 3 2 1 0 0 0 0 0 0 0 0 0 0 0 0 0
1 2 3 4 3 3 3 2 2 3 4 4 5 6 6 6 5 5 4 3 2 2 3 2 1 0 0 0 0 0 0 0 0 0 0 0 0 0
1 1 3 4 4 3 3 2 1 1 2 3 4 5 4 4 3 3 3 3 2 2 2 1 0 0 0 0 0 0 0 0 0 0 0 0 0 0
1 1 2 4 4 3 3 1 0 0 1 3 4 4 4 3 3 3 3 3 2 2 2 1 0 0 0 0 0 0 0 0 0 0 0 0 0 0
Wind_Speed
1 1 1 2 1 1 1 2 2 2 1 2 1 2 3 4 5 3 4 7 8 8 8 8 8 8 8 8 9 8 8 7 7 7 7 7 6 7
1 1 1 1 1 1 0 1 1 2 1 1 2 2 3 4 6 4 4 8 8 8 7 7 7 8 8 8 8 8 7 7 7 7 7 7 8 7
1 1 1 1 1 1 1 0 1 2 3 2 1 3 3 4 4 3 4 4 4 7 7 7 7 7 7 8 7 7 7 7 7 7 7 7 7 7
1 1 1 1 1 1 1 1 1 2 3 4 2 2 3 4 4 4 4 4 4 7 7 7 7 7 8 7 7 6 6 7 7 6 6 6 7 6
1 1 1 1 1 1 1 1 1 2 2 4 3 2 2 3 3 3 4 3 4 6 7 7 7 8 8 7 7 6 6 6 6 5 5 6 6 6
1 1 2 2 2 1 1 1 1 2 2 3 4 3 2 2 3 2 2 2 3 4 5 6 7 8 7 7 6 6 5 5 5 5 5 5 5 5
1 2 3 4 5 3 2 2 2 1 2 2 3 3 2 2 2 2 2 2 2 3 3 4 5 4 4 5 5 5 5 5 5 4 4 4 3 3
1 1 3 4 5 5 5 5 3 2 1 2 2 2 2 2 2 2 2 2 2 2 3 3 4 4 4 3 6 7 6 5 5 5 4 3 3 2
1 1 1 3 3 2 3 4 4 4 3 2 2 2 2 2 2 2 1 2 1 2 2 2 2 3 4 5 9 9 8 7 6 6 5 4 3 3
1 1 2 3 2 2 2 3 3 2 2 2 2 1 2 1 1 2 2 1 1 1 2 1 2 2 3 4 9 10 9 8 7 7 6 5 5 4
2 2 2 3 3 3 2 2 2 2 3 4 4 3 3 2 1 0 1 1 2 2 1 1 1 1 2 3 6 11 10 9 8 8 7 7 6 5
2 3 3 2 2 1 1 2 2 1 1 2 3 2 2 3 3 2 1 1 1 1 2 1 1 2 1 2 4 5 6 8 9 9 9 8 7 3
2 2 2 3 1 1 1 1 2 1 1 2 2 2 2 2 2 2 1 1 1 1 2 2 1 1 1 1 2 4 5 4 5 5 8 10 9 6
1 2 2 3 2 2 1 1 0 1 1 1 1 2 2 2 2 2 1 1 1 2 2 2 1 1 1 1 1 2 3 4 4 4 4 7 9 9
1 3 3 4 2 2 3 3 2 2 1 1 2 2 2 2 2 2 2 1 1 1 2 2 2 1 2 2 2 2 2 3 3 4 4 4 4 4
2 2 4 3 2 2 2 3 3 2 2 2 1 2 2 2 2 2 2 2 2 2 2 3 3 3 2 2 2 2 2 3 3 4 3 3 4 4
2 2 2 3 3 3 3 3 3 2 2 2 2 1 1 1 1 1 1 1 2 2 2 2 3 3 4 3 3 3 2 2 2 3 3 3 4 4
2 3 3 3 3 3 3 3 3 2 2 2 2 2 1 1 1 1 1 2 2 2 2 2 2 2 2 3 4 3 2 2 2 3 3 3 3 2
3 4 3 3 3 3 3 2 2 2 2 1 2 2 1 1 2 2 2 2 2 2 2 2 3 3 3 3 3 4 3 3 2 2 3 3 3 3
5 5 4 3 3 3 3 2 2 2 2 2 2 2 2 2 2 2 2 3 2 2 2 2 2 3 3 3 3 3 7 5 3 3 3 2 2 2
5 4 4 3 3 2 2 2 2 2 2 2 2 2 2 2 2 2 3 3 3 3 3 3 3 4 3 2 2 2 3 6 6 4 3 3 2 2
4 4 3 2 1 1 2 2 2 2 2 2 2 2 2 2 2 3 3 3 3 3 3 3 2 2 2 3 3 3 3 3 5 7 6 5 3 3
4 3 2 2 2 2 2 2 2 2 2 2 2 2 2 2 2 2 3 3 3 3 3 3 2 2 3 3 3 3 4 3 3 3 4 8 10 9
Wind_Direction
305 301 288 300 313 266 176 172 163 165 163 133 112 96 101 101 105 95 94 105 108 107 104 101 98 94 90 89 86 84 78 75 77 76 77 78 81 78
2 27 342 319 323 317 215 185 161 155 154 143 136 142 125 117 119 116 111 110 108 111 110 109 106 101 97 93 89 85 82 80 82 81 78 79 80 80
12 19 348 341 346 346 1 82 134 131 139 135 118 123 123 130 135 145 136 124 115 119 123 120 115 111 105 100 93 87 86 86 86 86 86 85 84 82
10 1 1 8 6 8 32 70 98 125 145 146 142 148 150 152 161 164 142 132 120 129 134 132 127 119 112 106 100 94 91 89 89 88 87 86 87 85
21 27 29 19 11 36 61 84 124 128 128 145 151 151 157 164 159 149 128 132 136 139 139 140 137 130 123 118 114 110 106 101 96 92 89 87 85 86
62 54 48 43 32 20 75 70 102 115 137 146 144 151 153 161 147 155 146 154 148 155 143 140 142 139 136 134 131 125 120 117 111 104 98 93 90 89
91 83 83 78 67 56 70 72 88 108 138 141 146 146 152 159 177 187 167 169 166 147 150 159 154 154 156 158 157 153 146 141 137 132 124 116 108 101
86 94 122 109 97 83 76 78 89 121 129 129 149 160 161 168 176 192 165 170 183 169 166 174 163 167 173 169 172 170 170 166 161 156 152 150 147 144
61 49 74 92 98 92 100 101 81 81 102 133 155 164 153 158 163 180 184 191 192 169 159 178 168 172 170 169 171 172 175 177 177 176 178 182 191 207
89 68 71 90 63 58 99 103 98 71 76 118 116 103 114 121 155 186 182 153 150 150 143 176 181 174 152 154 175 177 182 187 190 192 194 199 209 224
108 85 84 93 56 59 106 112 108 113 90 92 98 104 108 117 121 122 174 182 198 182 159 168 176 160 154 164 184 188 193 198 203 206 208 212 218 226
120 110 88 100 99 70 150 144 134 128 120 128 129 147 170 186 201 205 209 222 206 181 163 165 187 167 178 181 177 186 203 212 215 219 220 222 222 220
153 141 123 126 123 149 186 152 156 201 225 187 166 170 178 180 197 207 218 230 228 208 160 155 194 203 177 192 191 188 192 195 201 219 223 226 224 215
98 109 123 141 132 140 140 118 353 287 229 201 176 178 179 184 199 202 208 220 191 186 173 158 187 197 202 232 224 198 196 197 190 198 202 211 222 225
75 106 141 162 153 174 199 220 238 246 232 220 203 202 197 191 183 188 185 186 225 222 181 177 194 207 211 231 227 199 199 212 195 192 199 200 205 208
166 156 175 198 236 248 210 216 226 232 233 237 224 212 201 189 188 186 186 186 212 229 202 192 198 202 229 252 232 231 206 202 200 197 196 209 212 208
163 179 190 196 209 217 217 218 219 213 226 244 247 231 210 193 198 199 188 202 221 218 201 206 212 212 227 230 242 242 231 223 206 193 196 219 223 208
177 214 216 210 214 217 216 218 219 217 214 231 241 238 232 226 224 210 204 221 231 236 222 204 205 216 249 261 231 231 235 232 220 203 200 213 233 211
206 227 227 221 218 224 225 220 212 197 200 231 252 255 251 246 237 233 235 236 237 243 238 218 208 207 229 255 255 217 223 229 221 214 212 214 221 213
221 230 232 222 217 224 223 218 209 192 195 223 239 247 250 252 249 241 239 237 234 240 248 233 213 207 221 241 251 244 222 218 219 221 223 229 214 188
223 230 236 231 220 209 204 207 211 208 200 219 240 243 243 245 244 248 251 238 230 238 244 243 233 223 222 229 252 255 237 214 215 214 212 216 232 223
224 231 235 238 243 227 221 223 225 221 210 218 237 247 247 249 257 263 264 255 240 240 244 239 222 212 214 229 249 250 250 227 221 228 223 211 204 213
225 228 219 222 232 235 227 226 227 223 231 227 228 246 257 256 260 265 266 262 260 253 244 239 232 232 240 238 248 260 262 245 227 213 229 228 221 225